This is the latest recevied weather packets stored in our database for station/object DL8GAK-13. If no packets are shown the sender has not sent any weather packets the latest 10 day(s).
| Time | Temp. | Humidity | Pressure | Rain* | Wind** | Luminosity | Snow |
|---|---|---|---|---|---|---|---|
| 1777636118 | 18.89° C | 38% | 1031.8 hPa | - | - | - | - |
| 1777635517 | 18.33° C | 39% | 1031.9 hPa | - | - | - | - |
| 1777634916 | 18.33° C | 39% | 1031.9 hPa | - | - | - | - |
| 1777634315 | 17.78° C | 39% | 1032 hPa | - | - | - | - |
| 1777633714 | 17.22° C | 40% | 1032.1 hPa | - | - | - | - |
| 1777633113 | 17.22° C | 40% | 1032.2 hPa | - | - | - | - |
| 1777632512 | 16.67° C | 40% | 1032.4 hPa | - | - | - | - |
| 1777631911 | 16.67° C | 41% | 1032.5 hPa | - | - | - | - |
| 1777631310 | 16.11° C | 41% | 1032.5 hPa | - | - | - | - |
| 1777630709 | 16.11° C | 42% | 1032.5 hPa | - | - | - | - |
| 1777630108 | 15.56° C | 42% | 1032.6 hPa | - | - | - | - |
| 1777629507 | 15° C | 42% | 1032.6 hPa | - | - | - | - |
| 1777628906 | 15° C | 42% | 1032.7 hPa | - | - | - | - |
| 1777628305 | 14.44° C | 43% | 1032.8 hPa | - | - | - | - |
| 1777627704 | 14.44° C | 43% | 1032.9 hPa | - | - | - | - |
| 1777627103 | 13.89° C | 43% | 1032.9 hPa | - | - | - | - |
| 1777626502 | 13.89° C | 43% | 1032.9 hPa | - | - | - | - |
| 1777625901 | 13.33° C | 43% | 1032.8 hPa | - | - | - | - |
| 1777625300 | 13.33° C | 43% | 1032.7 hPa | - | - | - | - |
| 1777624700 | 12.78° C | 44% | 1032.9 hPa | - | - | - | - |
| 1777624100 | 12.78° C | 44% | 1032.9 hPa | - | - | - | - |
| 1777623499 | 12.22° C | 44% | 1033 hPa | - | - | - | - |
| 1777622899 | 12.22° C | 44% | 1033 hPa | - | - | - | - |
| 1777622298 | 12.22° C | 44% | 1032.9 hPa | - | - | - | - |
| 1777621697 | 11.67° C | 44% | 1032.9 hPa | - | - | - | - |
* Rain since midnight (hover to see other rain measurements)
** Current wind speed in m/s (hover to see current wind gust speed)